Year,Month,Day,Hour,Minute,Value (Times are PST for temperature in C)
2013,07,23,11,22,20.00
2013,07,23,11,23,20.00
2013,07,23,11,24,20.00
2013,07,23,11,25,20.00
2013,07,23,11,26,20.00
2013,07,23,11,27,20.10
2013,07,23,11,28,20.00
2013,07,23,11,29,20.00
2013,07,23,11,30,20.00
2013,07,23,11,31,20.00
2013,07,23,11,32,20.00
2013,07,23,11,33,19.90
2013,07,23,11,34,19.90
2013,07,23,11,35,19.80
2013,07,23,11,36,19.80
2013,07,23,11,37,19.80
2013,07,23,11,38,19.80
2013,07,23,11,39,19.80
2013,07,23,11,40,19.80
2013,07,23,11,41,19.80
2013,07,23,11,42,19.80
2013,07,23,11,43,19.80
2013,07,23,11,44,19.90
2013,07,23,11,45,19.90
2013,07,23,11,46,20.00
2013,07,23,11,47,20.10
2013,07,23,11,48,20.20
2013,07,23,11,49,20.20
2013,07,23,11,50,20.30
2013,07,23,11,51,20.30
2013,07,23,11,52,20.30
2013,07,23,11,53,20.30
2013,07,23,11,54,20.20
2013,07,23,11,55,20.20
2013,07,23,11,56,20.10
2013,07,23,11,57,20.10
2013,07,23,11,58,20.00
2013,07,23,11,59,20.00
2013,07,23,12,00,20.00
2013,07,23,12,01,20.00
2013,07,23,12,02,20.00
2013,07,23,12,03,20.10
2013,07,23,12,04,20.10
2013,07,23,12,05,20.10
2013,07,23,12,06,20.20
2013,07,23,12,07,20.20
2013,07,23,12,08,20.30
2013,07,23,12,09,20.40
2013,07,23,12,10,20.50
2013,07,23,12,11,20.60
2013,07,23,12,12,20.60
2013,07,23,12,13,20.60
2013,07,23,12,14,20.60
2013,07,23,12,15,20.50
2013,07,23,12,16,20.50
2013,07,23,12,17,20.60
2013,07,23,12,18,20.60
2013,07,23,12,19,20.60
2013,07,23,12,20,20.70
2013,07,23,12,21,20.80
2013,07,23,12,22,20.80
2013,07,23,12,23,20.80
2013,07,23,12,24,20.80
2013,07,23,12,25,20.80
2013,07,23,12,26,20.90
2013,07,23,12,27,20.90
2013,07,23,12,28,20.90
2013,07,23,12,29,20.80
2013,07,23,12,30,20.80
2013,07,23,12,31,20.90
2013,07,23,12,32,20.90
2013,07,23,12,33,20.80
2013,07,23,12,34,20.80
2013,07,23,12,35,20.80
2013,07,23,12,36,20.70
2013,07,23,12,37,20.70
2013,07,23,12,38,20.70
2013,07,23,12,39,20.60
2013,07,23,12,40,20.60
2013,07,23,12,41,20.60
2013,07,23,12,42,20.60
2013,07,23,12,43,20.70
2013,07,23,12,44,20.70
2013,07,23,12,45,20.80
2013,07,23,12,46,20.80
2013,07,23,12,47,20.80
2013,07,23,12,48,20.90
2013,07,23,12,49,20.90
2013,07,23,12,50,21.00
2013,07,23,12,51,21.10
2013,07,23,12,52,21.20
2013,07,23,12,53,21.20
2013,07,23,12,54,21.30
2013,07,23,12,55,21.40
2013,07,23,12,56,21.40
2013,07,23,12,57,21.40
2013,07,23,12,58,21.50
2013,07,23,12,59,21.50
2013,07,23,13,00,21.50
2013,07,23,13,01,21.70
2013,07,23,13,02,21.80
2013,07,23,13,03,21.90
2013,07,23,13,04,22.00
2013,07,23,13,05,22.10
2013,07,23,13,06,22.30
2013,07,23,13,07,22.40
2013,07,23,13,08,22.40
2013,07,23,13,09,22.50
2013,07,23,13,10,22.50
2013,07,23,13,11,22.50
2013,07,23,13,12,22.40
2013,07,23,13,13,22.20
2013,07,23,13,14,22.20
2013,07,23,13,15,22.20
2013,07,23,13,16,22.20
2013,07,23,13,17,22.20
2013,07,23,13,18,22.20
2013,07,23,13,19,22.20
2013,07,23,13,20,22.20
2013,07,23,13,21,22.20
2013,07,23,13,22,22.30
2013,07,23,13,23,22.30
2013,07,23,13,24,22.40
2013,07,23,13,25,22.30
2013,07,23,13,26,22.30
2013,07,23,13,27,22.40
2013,07,23,13,28,22.40
2013,07,23,13,29,22.40
2013,07,23,13,30,22.40
2013,07,23,13,31,22.40
2013,07,23,13,32,22.40
2013,07,23,13,33,22.40
2013,07,23,13,34,22.40
2013,07,23,13,35,22.30
2013,07,23,13,36,22.30
2013,07,23,13,37,22.30
2013,07,23,13,38,22.40
2013,07,23,13,39,22.40
2013,07,23,13,40,22.50
2013,07,23,13,41,22.60
2013,07,23,13,42,22.60
2013,07,23,13,43,22.50
2013,07,23,13,44,22.30
2013,07,23,13,45,22.20
2013,07,23,13,46,22.10
2013,07,23,13,47,22.10
2013,07,23,13,48,22.10
2013,07,23,13,49,22.10
2013,07,23,13,50,22.20
2013,07,23,13,51,22.20
2013,07,23,13,52,22.30
2013,07,23,13,53,22.40
2013,07,23,13,54,22.50
2013,07,23,13,55,22.60
2013,07,23,13,56,22.50
2013,07,23,13,57,22.40
2013,07,23,13,58,22.40
2013,07,23,13,59,22.40
2013,07,23,14,00,22.40
2013,07,23,14,01,22.30
2013,07,23,14,02,22.10
2013,07,23,14,03,22.00
2013,07,23,14,04,21.90
2013,07,23,14,05,21.90
2013,07,23,14,06,21.80
2013,07,23,14,07,21.80
2013,07,23,14,08,21.90
2013,07,23,14,09,22.00
2013,07,23,14,10,22.10
2013,07,23,14,11,22.20
2013,07,23,14,12,22.20
2013,07,23,14,13,22.20
2013,07,23,14,14,22.10
2013,07,23,14,15,21.90
2013,07,23,14,16,21.80
2013,07,23,14,17,21.90
2013,07,23,14,18,22.00
2013,07,23,14,19,22.10
2013,07,23,14,20,22.30
2013,07,23,14,21,22.40
2013,07,23,14,22,22.60
2013,07,23,14,23,22.80
2013,07,23,14,24,23.00
2013,07,23,14,25,23.10
2013,07,23,14,26,23.20
2013,07,23,14,27,23.20
2013,07,23,14,28,23.30
2013,07,23,14,29,23.40
2013,07,23,14,30,23.40
2013,07,23,14,31,23.40
2013,07,23,14,32,23.30
2013,07,23,14,33,23.40
2013,07,23,14,34,23.30
2013,07,23,14,35,23.20
2013,07,23,14,36,23.00
2013,07,23,14,37,22.90
2013,07,23,14,38,22.80
2013,07,23,14,39,22.80
2013,07,23,14,40,22.80
2013,07,23,14,41,22.80
2013,07,23,14,42,22.80
2013,07,23,14,43,22.70
2013,07,23,14,44,22.60
2013,07,23,14,45,22.50
2013,07,23,14,46,22.50
2013,07,23,14,47,22.50
2013,07,23,14,48,22.70
2013,07,23,14,49,22.80
2013,07,23,14,50,22.80
2013,07,23,14,51,22.90
2013,07,23,14,52,23.00
2013,07,23,14,53,23.20
2013,07,23,14,54,23.30
2013,07,23,14,55,23.40
2013,07,23,14,56,23.50
2013,07,23,14,57,23.70
2013,07,23,14,58,23.80
2013,07,23,14,59,23.80
2013,07,23,15,00,23.70
2013,07,23,15,01,23.70
2013,07,23,15,02,23.90
2013,07,23,15,03,23.90
2013,07,23,15,04,24.00
2013,07,23,15,05,24.00
2013,07,23,15,06,24.10
2013,07,23,15,07,24.10
2013,07,23,15,08,24.10
2013,07,23,15,09,24.20
2013,07,23,15,10,24.10
2013,07,23,15,11,24.10
2013,07,23,15,12,24.10
2013,07,23,15,13,24.10
2013,07,23,15,14,24.10
2013,07,23,15,15,24.10
2013,07,23,15,16,24.10
2013,07,23,15,17,24.10
2013,07,23,15,18,24.10
2013,07,23,15,19,24.20
2013,07,23,15,20,24.20
2013,07,23,15,21,24.10
2013,07,23,15,22,24.10
2013,07,23,15,23,24.10
2013,07,23,15,24,24.00
2013,07,23,15,25,23.90
2013,07,23,15,26,23.70
2013,07,23,15,27,23.70
2013,07,23,15,28,23.70
2013,07,23,15,29,23.70
2013,07,23,15,30,23.70
2013,07,23,15,31,23.80
2013,07,23,15,32,23.80
2013,07,23,15,33,23.90
2013,07,23,15,34,24.00
2013,07,23,15,35,24.00
2013,07,23,15,36,24.00
2013,07,23,15,37,24.00
2013,07,23,15,38,24.00
2013,07,23,15,39,24.00
2013,07,23,15,40,23.90
2013,07,23,15,41,23.80
2013,07,23,15,42,23.80
2013,07,23,15,43,23.90
2013,07,23,15,44,23.90
2013,07,23,15,45,23.90
2013,07,23,15,46,24.00
2013,07,23,15,47,24.10
2013,07,23,15,48,24.10
2013,07,23,15,49,23.90
2013,07,23,15,50,23.80
2013,07,23,15,51,23.70
2013,07,23,15,52,23.60
2013,07,23,15,53,23.70
2013,07,23,15,54,23.80
2013,07,23,15,55,23.90
2013,07,23,15,56,23.90
2013,07,23,15,57,23.90
2013,07,23,15,58,24.00
2013,07,23,15,59,24.10
2013,07,23,16,01,24.30
